Ellensburg, WA
on Monday, December 10, 2012

Monday
Previous Day Next Day
Daily Summary
 ActualAverage (KYKM)Record (KYKM)
Temperature
Mean Temperature °F 29°F  
Max Temperature 53°F 36°F 64°F (1946)
Min Temperature 39°F 21°F -5°F (1972)
Degree Days
Heating Degree Days 18 36  
Month to date heating degree days 348  
Since 1 July heating degree days 1881  
Cooling Degree Days 0 0  
Month to date cooling degree days 0  
Year to date cooling degree days 472  
Moisture
Dew Point 32°F   
Average Humidity 59    
Maximum Humidity 66    
Minimum Humidity 48    
Precipitation
Precipitation 0.00 in 0.04 in 0.67 in (1992)
Month to date precipitation 0.48  
Year to date precipitation 7.20  
Snow
Snow 0.00 in 0.30 in 6.80 in (1992)
Month to date snowfall 2.8  
Year to date snowfall 15.0  
Since 1 July snowfall 6.4  
Snow Depth in   
Wind
Wind Speed 22 mph   
Max Wind Speed 31 mph   
Max Gust Speed 43 mph   
Visibility 10 miles   
Events     

Key: T is trace of precipitation, MM is missing value
Source: NWS Daily Summary
Time(PST)TemperatureDew PointHumidity Pressure Visibility Wind DirectionWind SpeedGust SpeedPrecipitationEvents Conditions
12:53 AM 48.0°F 36.0°F 63% 30.19 in 10.0 miles NW 31.1 mph 42.6 mph N/A   Clear
1:53 AM 46.0°F 35.1°F 66% 30.19 in 10.0 miles WNW 25.3 mph 32.2 mph N/A   Clear
2:53 AM 46.0°F 35.1°F 66% 30.20 in 10.0 miles NW 20.7 mph 32.2 mph N/A   Clear
3:53 AM 45.0°F 34.0°F 65% 30.22 in 10.0 miles NW 19.6 mph 31.1 mph N/A   Clear
4:53 AM 44.1°F 30.9°F 60% 30.23 in 10.0 miles NW 21.9 mph 27.6 mph N/A   Clear
5:53 AM 45.0°F 32.0°F 60% 30.24 in 10.0 miles NW 27.6 mph 38.0 mph N/A   Clear
6:53 AM 45.0°F 33.1°F 63% 30.26 in 10.0 miles NW 18.4 mph 28.8 mph N/A   Clear
7:53 AM 46.0°F 32.0°F 58% 30.29 in 10.0 miles North 11.5 mph 23.0 mph N/A   Clear
8:53 AM 46.9°F 33.1°F 59% 30.27 in 10.0 miles NW 5.8 mph - N/A   Clear
9:53 AM 50.0°F 34.0°F 54% 30.26 in 10.0 miles NW 10.4 mph 17.3 mph N/A   Clear
10:53 AM 52.0°F 33.1°F 49% 30.24 in 10.0 miles West 18.4 mph 29.9 mph N/A   Partly Cloudy
11:53 AM 53.1°F 34.0°F 48% 30.22 in 10.0 miles WNW 19.6 mph - N/A   Clear
12:53 PM 52.0°F 34.0°F 50% 30.20 in 10.0 miles WNW 27.6 mph 34.5 mph N/A   Clear
1:53 PM 50.0°F 34.0°F 54% 30.20 in 10.0 miles WNW 23.0 mph 35.7 mph N/A   Clear
2:53 PM 48.0°F 33.1°F 56% 30.17 in 10.0 miles WNW 28.8 mph 38.0 mph N/A   Clear
3:53 PM 46.0°F 32.0°F 58% 30.16 in 10.0 miles NW 24.2 mph 34.5 mph N/A   Clear
4:53 PM 44.1°F 32.0°F 63% 30.15 in 10.0 miles NW 21.9 mph - N/A   Clear
5:53 PM 44.1°F 32.0°F 63% 30.15 in 10.0 miles NW 20.7 mph 26.5 mph N/A   Clear
6:53 PM 43.0°F 30.0°F 60% 30.14 in 10.0 miles NW 18.4 mph 24.2 mph N/A   Clear
7:53 PM 43.0°F 28.9°F 58% 30.13 in 10.0 miles NW 20.7 mph - N/A   Clear
8:53 PM 43.0°F 28.0°F 56% 30.12 in 10.0 miles NNW 12.7 mph - N/A   Clear
9:53 PM 41.0°F 28.0°F 60% 30.10 in 10.0 miles North 11.5 mph - N/A   Scattered Clouds
10:53 PM 41.0°F 28.9°F 62% 30.06 in 10.0 miles North 13.8 mph - N/A   Clear
11:53 PM 39.9°F 28.9°F 65% 30.01 in 10.0 miles NNW 12.7 mph - N/A   Clear
Moon Phase
Dec. 10 Dec. 13 Dec. 20 Dec. 28 Jan. 04
Sunrise:07:37 AM (PST) Moon Rise:04:19 AM (PST)12/10
Sunset:04:12 PM (PST) Moon Set:02:11 PM (PST)12/10

Copyright © 2014 The Weather Underground, Inc.